Location: Kampernieuwstad
(52.5135°N, 5.8742°E)
Time: 21:08:45
(UTC+00:00)

Cosmos 1602 Rocket - Pass Details

Date: 15 May 2026
Orbit: 597 x 625 km, 82.5° (Epoch: 8 June)

Event Time Altitude Azimuth Distance (km) Brightness Sun altitude
Rises 20:38:07 0° 350° (N) 2,861 8.1 -9.1°
Reaches altitude 10° 20:40:20 10° 352° (N) 1,956 7.1 -9.3°
Maximum altitude 20:44:40 76° 78° (ENE) 629 3.5 -9.7°
Enters shadow 20:48:45 11° 164° (SSE) 1,858 5.4 -10.1°
